Ft Lauderdale, FL

7:38 AM EDT on October 17, 2017 (GMT -0400)
Fort Lauderdale-Hollywood International

Weather History for KFLL - January, 2013

Change the Weather History Date:

Thursday, January 31, 2013

  Actual Average Record
Temperature  
Mean Temperature 68 °F 70 °F  
Max Temperature 75 °F 77 °F 86 °F (1991)
Min Temperature 61 °F 63 °F 32 °F (1966)
Degree Days  
Heating Degree Days 0 1  
Month to date heating degree days 2 47  
Since 1 July heating degree days 24 80  
Cooling Degree Days 3 6  
Month to date cooling degree days 255 170  
Year to date cooling degree days 255 170  
Growing Degree Days 18 (Base 50)    
Moisture  
Dew Point 60 °F    
Average Humidity 70    
Maximum Humidity 93    
Minimum Humidity 46    
Precipitation  
Precipitation 0.02 in 0.18 in 1.16 in (2004)
Month to date precipitation 0.98 3.63  
Year to date precipitation 0.98 3.63  
Snow  
Snow 0.00 in - - ()
Month to date snowfall 0.0  
Since 1 July snowfall 0.0  
Snow Depth 0.00 in    
Sea Level Pressure  
Sea Level Pressure 30.07 in    
Wind  
Wind Speed 8 mph (NW)    
Max Wind Speed 21 mph    
Max Gust Speed 25 mph    
Visibility 10 miles    
Events Rain    
T = Trace of Precipitation, MM = Missing Value Source: NWS Daily Summary

Daily Weather History Graph

Daily Weather History Graph

Search for Another Location

Airport or City:

Trip Planner

Search our weather history database for the weather conditions in past years. The results will help you decide how hot, cold, wet, or windy it might be!

Date:

Astronomy

Jan. 31, 2013 Rise Set
Actual Time 7:05 AM EST 6:03 PM EST
Civil Twilight 6:40 AM EST 6:27 PM EST
Nautical Twilight 6:13 AM EST 6:55 PM EST
Astronomical Twilight 5:46 AM EST 7:22 PM EST
Moon 10:27 PM EST (1/31) 9:36 AM EST (1/31)
Length of Visible Light 11h 46m
Length of Day
10h 58m
Waning Gibbous, 80% of the Moon is Illuminated
Jan 31
Waning Gibbous
Feb 3
Last Quarter
Feb 10
New
Feb 17
First Quarter
Feb 25
Full

Hourly Weather History & Observations

Time (EST) Temp. Dew Point Humidity Pressure Visibility Wind Dir Wind Speed Gust Speed Precip Events Conditions
12:53 AM 73.0 °F 68.0 °F 84% 30.00 in 10.0 mi South 6.9 mph - N/A   Partly Cloudy
1:53 AM 72.0 °F 69.1 °F 91% 29.99 in 10.0 mi SSW 3.5 mph - N/A   Clear
2:53 AM 71.1 °F 69.1 °F 93% 29.98 in 10.0 mi South 3.5 mph - N/A   Partly Cloudy
3:53 AM 71.1 °F 69.1 °F 93% 29.97 in 10.0 mi South 4.6 mph - N/A   Partly Cloudy
4:53 AM 71.1 °F 69.1 °F 93% 29.96 in 10.0 mi South 4.6 mph - N/A   Clear
5:53 AM 72.0 °F 70.0 °F 93% 29.98 in 10.0 mi South 3.5 mph - N/A   Clear
6:53 AM 72.0 °F 70.0 °F 93% 29.99 in 9.0 mi South 4.6 mph - N/A   Partly Cloudy
7:53 AM 73.0 °F 70.0 °F 90% 30.01 in 10.0 mi SSW 5.8 mph - N/A   Partly Cloudy
8:45 AM 73.4 °F 69.8 °F 88% 30.06 in 10.0 mi NW 18.4 mph 23.0 mph N/A   Mostly Cloudy
8:53 AM 66.9 °F 63.0 °F 87% 30.07 in 10.0 mi NW 16.1 mph 25.3 mph N/A   Mostly Cloudy
8:57 AM 66.2 °F 62.6 °F 88% 30.08 in 8.0 mi NW 16.1 mph 25.3 mph 0.00 in Rain Light Rain
9:45 AM 64.4 °F 62.6 °F 94% 30.09 in 10.0 mi NNW 13.8 mph - 0.02 in   Partly Cloudy
9:53 AM 66.0 °F 63.0 °F 90% 30.09 in 10.0 mi NW 12.7 mph - 0.02 in   Mostly Cloudy
10:07 AM 66.2 °F 62.6 °F 88% 30.09 in 10.0 mi NW 12.7 mph - N/A   Partly Cloudy
10:31 AM 66.2 °F 62.6 °F 88% 30.11 in 10.0 mi NNW 15.0 mph - N/A   Mostly Cloudy
10:34 AM 66.2 °F 62.6 °F 88% 30.11 in 10.0 mi NW 11.5 mph 23.0 mph N/A   Mostly Cloudy
10:53 AM 66.0 °F 60.1 °F 81% 30.12 in 10.0 mi NNW 13.8 mph - N/A   Mostly Cloudy
11:53 AM 69.1 °F 59.0 °F 70% 30.10 in 10.0 mi NNW 9.2 mph - N/A   Mostly Cloudy
12:06 PM 69.8 °F 59.0 °F 68% 30.10 in 10.0 mi NNW 10.4 mph - N/A   Overcast
12:31 PM 69.8 °F 59.0 °F 68% 30.09 in 10.0 mi NNW 9.2 mph - N/A   Mostly Cloudy
12:53 PM 71.1 °F 59.0 °F 66% 30.08 in 10.0 mi NW 10.4 mph - N/A   Mostly Cloudy
1:53 PM 70.0 °F 57.9 °F 65% 30.06 in 10.0 mi NNW 9.2 mph - N/A   Overcast
2:53 PM 69.1 °F 54.0 °F 58% 30.05 in 10.0 mi NNW 5.8 mph - N/A   Mostly Cloudy
3:53 PM 66.9 °F 54.0 °F 63% 30.08 in 10.0 mi NNW 11.5 mph - N/A   Overcast
4:53 PM 66.0 °F 54.0 °F 65% 30.09 in 10.0 mi NNW 9.2 mph - N/A   Mostly Cloudy
5:53 PM 66.0 °F 51.1 °F 59% 30.10 in 10.0 mi North 8.1 mph - N/A   Mostly Cloudy
6:53 PM 66.0 °F 52.0 °F 60% 30.12 in 10.0 mi North 5.8 mph - N/A   Scattered Clouds
7:53 PM 66.0 °F 51.1 °F 59% 30.14 in 10.0 mi NNE 4.6 mph - N/A   Partly Cloudy
8:53 PM 64.9 °F 51.1 °F 61% 30.14 in 10.0 mi NNW 4.6 mph - N/A   Partly Cloudy
9:53 PM 64.9 °F 51.1 °F 61% 30.17 in 10.0 mi NNW 10.4 mph - N/A   Partly Cloudy
10:53 PM 63.0 °F 41.0 °F 45% 30.17 in 10.0 mi North 13.8 mph - N/A   Partly Cloudy
11:53 PM 61.0 °F 37.0 °F 41% 30.16 in 10.0 mi NNW 9.2 mph - N/A   Clear